SS-1

Last updated on Tue May 09 2023 00:02:07 GMT+0000 (Coordinated Universal Time)

1 55181U 98067UY 23128.31264506 .04327999 11999-4 15316-2 0 9997 2 55181 51.6138 149.1199 0004950 351.6041 8.4895 16.24294549 19143

Satellite not in orbit